Time,TemperatureF,DewpointF,PressureIn,WindDirection,WindDirectionDegrees,WindSpeedMPH,WindSpeedGustMPH,Humidity,HourlyPrecipIn,Conditions,Clouds,dailyrainin,SoftwareType,DateUTC
2013-04-19 00:01:00,49.9,34.8,29.70,SE,138,8.0,8.0,56,0.00,,,0.02,Wunderground v.1.15,2013-04-19 04:01:00,
2013-04-19 00:05:00,50.2,35.1,29.70,SW,215,8.0,11.0,56,0.00,,,0.00,Wunderground v.1.15,2013-04-19 04:05:00,
2013-04-19 00:11:00,50.5,35.4,29.70,South,185,8.0,8.0,56,0.00,,,0.00,Wunderground v.1.15,2013-04-19 04:11:00,
2013-04-19 00:25:00,50.6,36.4,29.69,South,178,8.0,8.0,58,0.00,,,0.00,Wunderground v.1.15,2013-04-19 04:25:00,
2013-04-19 00:30:00,50.6,36.4,29.69,South,176,8.0,17.0,58,0.00,,,0.00,Wunderground v.1.15,2013-04-19 04:30:00,
2013-04-19 00:35:00,50.6,36.4,29.68,SSW,196,9.0,9.0,58,0.00,,,0.00,Wunderground v.1.15,2013-04-19 04:35:00,
2013-04-19 00:45:00,50.4,37.0,29.68,SSW,209,9.0,9.0,60,0.00,,,0.00,Wunderground v.1.15,2013-04-19 04:45:00,
2013-04-19 00:56:00,50.5,38.4,29.68,South,180,10.0,10.0,63,0.00,,,0.00,Wunderground v.1.15,2013-04-19 04:56:00,
2013-04-19 01:05:00,50.3,39.4,29.68,SSE,159,7.0,10.0,66,0.00,,,0.00,Wunderground v.1.15,2013-04-19 05:05:00,
2013-04-19 01:15:00,50.4,40.6,29.68,South,180,10.0,10.0,69,0.00,,,0.00,Wunderground v.1.15,2013-04-19 05:15:00,
2013-04-19 01:21:00,50.2,40.8,29.68,SSW,205,9.0,9.0,70,0.00,,,0.00,Wunderground v.1.15,2013-04-19 05:21:00,
2013-04-19 01:30:00,50.3,42.0,29.68,SSE,166,8.0,9.0,73,0.00,,,0.00,Wunderground v.1.15,2013-04-19 05:30:00,
2013-04-19 01:35:00,50.3,42.3,29.68,SSE,166,7.0,7.0,74,0.00,,,0.00,Wunderground v.1.15,2013-04-19 05:35:00,
2013-04-19 01:45:00,50.3,42.3,29.67,South,173,6.0,7.0,74,0.00,,,0.00,Wunderground v.1.15,2013-04-19 05:45:00,
2013-04-19 01:50:00,50.3,43.0,29.67,SSE,166,7.0,7.0,76,0.00,,,0.00,Wunderground v.1.15,2013-04-19 05:50:00,
2013-04-19 01:56:00,50.3,43.4,29.67,SSW,200,8.0,8.0,77,0.00,,,0.00,Wunderground v.1.15,2013-04-19 05:56:00,
2013-04-19 02:05:00,50.4,44.1,29.66,South,175,9.0,10.0,79,0.00,,,0.00,Wunderground v.1.15,2013-04-19 06:05:00,
2013-04-19 02:10:00,50.3,44.0,29.66,South,180,9.0,14.0,79,0.00,,,0.00,Wunderground v.1.15,2013-04-19 06:10:00,
2013-04-19 02:15:00,50.4,44.5,29.66,South,190,8.0,14.0,80,0.00,,,0.00,Wunderground v.1.15,2013-04-19 06:15:00,
2013-04-19 02:25:00,50.4,44.8,29.66,South,177,8.0,10.0,81,0.00,,,0.00,Wunderground v.1.15,2013-04-19 06:25:00,
2013-04-19 02:30:00,50.4,45.1,29.65,SSE,161,9.0,9.0,82,0.00,,,0.00,Wunderground v.1.15,2013-04-19 06:30:00,
2013-04-19 02:35:00,50.4,45.1,29.65,SSW,203,10.0,10.0,82,0.00,,,0.00,Wunderground v.1.15,2013-04-19 06:35:00,
2013-04-19 02:40:00,50.3,45.0,29.65,SSW,204,9.0,9.0,82,0.00,,,0.00,Wunderground v.1.15,2013-04-19 06:40:00,
2013-04-19 02:50:00,50.3,45.3,29.65,South,188,9.0,9.0,83,0.00,,,0.00,Wunderground v.1.15,2013-04-19 06:50:00,
2013-04-19 02:55:00,50.2,45.6,29.65,South,181,8.0,12.0,84,0.00,,,0.00,Wunderground v.1.15,2013-04-19 06:55:00,
2013-04-19 03:00:00,50.2,45.6,29.65,South,183,8.0,8.0,84,0.00,,,0.00,Wunderground v.1.15,2013-04-19 07:00:00,
2013-04-19 03:10:00,50.1,45.5,29.64,SE,142,6.0,6.0,84,0.00,,,0.00,Wunderground v.1.15,2013-04-19 07:10:00,
2013-04-19 03:20:00,50.1,45.8,29.64,SW,220,7.0,10.0,85,0.00,,,0.00,Wunderground v.1.15,2013-04-19 07:20:00,
2013-04-19 03:30:00,50.1,46.1,29.63,SSW,197,8.0,8.0,86,0.00,,,0.00,Wunderground v.1.15,2013-04-19 07:30:00,
2013-04-19 03:35:00,50.1,46.1,29.63,South,169,7.0,8.0,86,0.00,,,0.00,Wunderground v.1.15,2013-04-19 07:35:00,
2013-04-19 03:41:00,50.0,46.0,29.63,South,182,8.0,8.0,86,0.00,,,0.00,Wunderground v.1.15,2013-04-19 07:41:00,
2013-04-19 03:55:00,50.1,46.4,29.62,SSE,168,7.0,7.0,87,0.00,,,0.00,Wunderground v.1.15,2013-04-19 07:55:00,
2013-04-19 04:00:00,50.1,46.4,29.62,SW,226,9.0,9.0,87,0.00,,,0.00,Wunderground v.1.15,2013-04-19 08:00:00,
2013-04-19 04:05:00,50.1,46.7,29.62,SSW,192,8.0,12.0,88,0.00,,,0.00,Wunderground v.1.15,2013-04-19 08:05:00,
2013-04-19 04:20:00,50.3,46.6,29.62,South,180,5.0,5.0,87,0.00,,,0.00,Wunderground v.1.15,2013-04-19 08:20:00,
2013-04-19 04:25:00,50.3,46.6,29.61,SW,221,4.0,6.0,87,0.00,,,0.00,Wunderground v.1.15,2013-04-19 08:25:00,
2013-04-19 04:30:00,50.4,47.0,29.60,SSW,200,6.0,7.0,88,0.00,,,0.00,Wunderground v.1.15,2013-04-19 08:30:00,
2013-04-19 04:50:00,50.5,47.1,29.60,South,185,5.0,8.0,88,0.00,,,0.00,Wunderground v.1.15,2013-04-19 08:50:00,
2013-04-19 04:55:00,50.6,47.2,29.60,South,182,5.0,8.0,88,0.00,,,0.00,Wunderground v.1.15,2013-04-19 08:55:00,
2013-04-19 05:00:00,50.6,47.2,29.60,South,190,6.0,6.0,88,0.00,,,0.00,Wunderground v.1.15,2013-04-19 09:00:00,
2013-04-19 05:05:00,50.7,47.3,29.60,South,180,6.0,6.0,88,0.00,,,0.00,Wunderground v.1.15,2013-04-19 09:05:00,
2013-04-19 05:11:00,50.6,47.2,29.59,SSW,196,7.0,7.0,88,0.00,,,0.00,Wunderground v.1.15,2013-04-19 09:11:00,
2013-04-19 05:25:00,50.8,47.7,29.60,South,185,8.0,12.0,89,0.00,,,0.00,Wunderground v.1.15,2013-04-19 09:25:00,
2013-04-19 05:36:00,51.0,47.9,29.60,SSW,210,9.0,9.0,89,0.00,,,0.00,Wunderground v.1.15,2013-04-19 09:36:00,
2013-04-19 05:50:00,50.9,48.1,29.59,South,180,7.0,7.0,90,0.00,,,0.00,Wunderground v.1.15,2013-04-19 09:50:00,
2013-04-19 05:55:00,51.0,47.9,29.59,SSW,201,8.0,8.0,89,0.00,,,0.00,Wunderground v.1.15,2013-04-19 09:55:00,
2013-04-19 06:05:00,51.0,48.2,29.59,South,177,7.0,9.0,90,0.00,,,0.00,Wunderground v.1.15,2013-04-19 10:05:00,
2013-04-19 06:16:00,51.3,48.5,29.58,South,186,8.0,9.0,90,0.00,,,0.00,Wunderground v.1.15,2013-04-19 10:16:00,
2013-04-19 06:25:00,51.7,48.9,29.58,South,189,9.0,9.0,90,0.00,,,0.00,Wunderground v.1.15,2013-04-19 10:25:00,
2013-04-19 06:40:00,51.6,48.8,29.58,SSW,209,9.0,10.0,90,0.00,,,0.00,Wunderground v.1.15,2013-04-19 10:40:00,
2013-04-19 06:50:00,51.8,49.0,29.59,SSW,198,9.0,9.0,90,0.00,,,0.00,Wunderground v.1.15,2013-04-19 10:50:00,
2013-04-19 06:55:00,51.9,49.1,29.59,SSW,192,8.0,9.0,90,0.00,,,0.00,Wunderground v.1.15,2013-04-19 10:55:00,
2013-04-19 07:05:00,52.0,49.2,29.59,SSW,204,7.0,9.0,90,0.00,,,0.00,Wunderground v.1.15,2013-04-19 11:05:00,
2013-04-19 07:20:00,52.7,49.5,29.58,SSE,164,8.0,8.0,89,0.00,,,0.00,Wunderground v.1.15,2013-04-19 11:20:00,
2013-04-19 07:35:00,53.2,50.0,29.57,South,175,10.0,11.0,89,0.00,,,0.00,Wunderground v.1.15,2013-04-19 11:35:00,
2013-04-19 07:40:00,53.3,50.1,29.57,South,180,10.0,12.0,89,0.00,,,0.00,Wunderground v.1.15,2013-04-19 11:40:00,
2013-04-19 08:00:00,54.1,50.6,29.58,SSW,202,7.0,7.0,88,0.00,,,0.00,Wunderground v.1.15,2013-04-19 12:00:00,
2013-04-19 08:10:00,54.5,50.7,29.57,SSW,211,5.0,7.0,87,0.00,,,0.00,Wunderground v.1.15,2013-04-19 12:10:00,
2013-04-19 08:15:00,54.7,50.9,29.57,South,186,5.0,7.0,87,0.00,,,0.00,Wunderground v.1.15,2013-04-19 12:15:00,
2013-04-19 08:20:00,54.9,51.1,29.58,SW,216,5.0,5.0,87,0.00,,,0.00,Wunderground v.1.15,2013-04-19 12:20:00,
2013-04-19 08:30:00,55.0,50.9,29.57,South,184,6.0,6.0,86,0.00,,,0.00,Wunderground v.1.15,2013-04-19 12:30:00,
2013-04-19 08:36:00,55.3,51.2,29.56,South,184,6.0,8.0,86,0.00,,,0.00,Wunderground v.1.15,2013-04-19 12:36:00,
2013-04-19 08:45:00,55.7,51.6,29.56,SSW,203,6.0,7.0,86,0.00,,,0.00,Wunderground v.1.15,2013-04-19 12:45:00,
2013-04-19 08:50:00,55.9,51.5,29.56,SSW,196,5.0,6.0,85,0.00,,,0.00,Wunderground v.1.15,2013-04-19 12:50:00,
2013-04-19 09:00:00,56.0,51.6,29.56,SSE,156,7.0,7.0,85,0.00,,,0.00,Wunderground v.1.15,2013-04-19 13:00:00,
2013-04-19 09:05:00,55.9,51.5,29.56,SSE,166,6.0,7.0,85,0.00,,,0.00,Wunderground v.1.15,2013-04-19 13:05:00,
2013-04-19 09:10:00,56.0,51.6,29.56,South,174,7.0,8.0,85,0.00,,,0.00,Wunderground v.1.15,2013-04-19 13:10:00,
2013-04-19 09:20:00,56.4,51.9,29.56,South,172,6.0,6.0,85,0.00,,,0.00,Wunderground v.1.15,2013-04-19 13:20:00,
2013-04-19 09:25:00,56.7,51.9,29.55,SSE,153,6.0,6.0,84,0.00,,,0.00,Wunderground v.1.15,2013-04-19 13:25:00,
2013-04-19 09:35:00,56.9,52.1,29.54,SSE,159,6.0,11.0,84,0.00,,,0.00,Wunderground v.1.15,2013-04-19 13:35:00,
2013-04-19 09:50:00,57.6,52.5,29.53,South,175,8.0,9.0,83,0.00,,,0.00,Wunderground v.1.15,2013-04-19 13:50:00,
2013-04-19 09:55:00,57.8,52.7,29.53,South,178,10.0,12.0,83,0.00,,,0.00,Wunderground v.1.15,2013-04-19 13:55:00,
2013-04-19 10:05:00,58.9,53.1,29.52,South,182,11.0,11.0,81,0.00,,,0.00,Wunderground v.1.15,2013-04-19 14:05:00,
2013-04-19 10:15:00,58.7,52.9,29.52,SSE,153,10.0,12.0,81,0.00,,,0.00,Wunderground v.1.15,2013-04-19 14:15:00,
2013-04-19 10:30:00,59.7,54.2,29.51,SSW,213,10.0,10.0,82,0.00,,,0.00,Wunderground v.1.15,2013-04-19 14:30:00,
2013-04-19 10:40:00,61.9,54.2,29.51,SSE,167,11.0,12.0,76,0.00,,,0.00,Wunderground v.1.15,2013-04-19 14:40:00,
2013-04-19 10:45:00,61.2,54.3,29.51,SSW,207,13.0,13.0,78,0.00,,,0.00,Wunderground v.1.15,2013-04-19 14:45:00,
2013-04-19 10:55:00,61.9,53.9,29.50,SW,221,10.0,10.0,75,0.00,,,0.00,Wunderground v.1.15,2013-04-19 14:55:00,
2013-04-19 11:05:00,62.0,54.3,29.50,SSE,167,11.0,11.0,76,0.00,,,0.00,Wunderground v.1.15,2013-04-19 15:05:00,
2013-04-19 11:11:00,63.6,55.2,29.49,South,174,12.0,13.0,74,0.00,,,0.00,Wunderground v.1.15,2013-04-19 15:11:00,
2013-04-19 11:20:00,64.2,55.0,29.49,SW,217,13.0,13.0,72,0.00,,,0.00,Wunderground v.1.15,2013-04-19 15:20:00,
2013-04-19 11:25:00,64.7,54.3,29.48,WSW,242,13.0,13.0,69,0.00,,,0.00,Wunderground v.1.15,2013-04-19 15:25:00,
2013-04-19 11:40:00,64.6,55.0,29.47,South,169,15.0,15.0,71,0.00,,,0.00,Wunderground v.1.15,2013-04-19 15:40:00,
2013-04-19 11:45:00,66.1,54.8,29.47,South,186,13.0,15.0,67,0.00,,,0.00,Wunderground v.1.15,2013-04-19 15:45:00,
2013-04-19 11:50:00,65.8,53.7,29.47,SSE,153,11.0,11.0,65,0.00,,,0.00,Wunderground v.1.15,2013-04-19 15:50:00,
2013-04-19 12:00:00,65.8,53.7,29.46,SSW,195,14.0,14.0,65,0.00,,,0.00,Wunderground v.1.15,2013-04-19 16:00:00,
2013-04-19 12:05:00,65.9,53.8,29.46,South,175,14.0,14.0,65,0.00,,,0.00,Wunderground v.1.15,2013-04-19 16:05:00,
2013-04-19 12:20:00,67.1,53.6,29.45,South,190,14.0,14.0,62,0.00,,,0.00,Wunderground v.1.15,2013-04-19 16:20:00,
2013-04-19 12:30:00,66.7,53.7,29.44,South,185,14.0,14.0,63,0.00,,,0.00,Wunderground v.1.15,2013-04-19 16:30:00,
2013-04-19 12:35:00,65.8,53.3,29.44,SSW,197,15.0,15.0,64,0.00,,,0.00,Wunderground v.1.15,2013-04-19 16:35:00,
2013-04-19 12:45:00,67.1,53.6,29.43,South,172,14.0,26.0,62,0.00,,,0.00,Wunderground v.1.15,2013-04-19 16:45:00,
2013-04-19 13:00:00,67.1,53.6,29.42,SW,219,17.0,17.0,62,0.00,,,0.00,Wunderground v.1.15,2013-04-19 17:00:00,
2013-04-19 13:05:00,67.7,53.8,29.42,South,184,16.0,17.0,61,0.00,,,0.00,Wunderground v.1.15,2013-04-19 17:05:00,
2013-04-19 13:20:00,68.6,53.7,29.41,SW,219,14.0,14.0,59,0.00,,,0.00,Wunderground v.1.15,2013-04-19 17:20:00,
2013-04-19 13:25:00,67.9,54.0,29.40,South,182,16.0,16.0,61,0.00,,,0.00,Wunderground v.1.15,2013-04-19 17:25:00,
2013-04-19 13:40:00,69.2,53.8,29.39,SSW,199,12.0,14.0,58,0.00,,,0.00,Wunderground v.1.15,2013-04-19 17:40:00,
2013-04-19 13:45:00,69.4,54.9,29.39,SSE,168,12.0,19.0,60,0.00,,,0.00,Wunderground v.1.15,2013-04-19 17:45:00,
2013-04-19 13:50:00,70.1,54.6,29.38,South,186,14.0,27.0,58,0.00,,,0.00,Wunderground v.1.15,2013-04-19 17:50:00,
2013-04-19 14:00:00,69.9,54.4,29.38,SW,214,15.0,15.0,58,0.00,,,0.00,Wunderground v.1.15,2013-04-19 18:00:00,
2013-04-19 14:05:00,70.0,54.5,29.38,South,183,15.0,20.0,58,0.00,,,0.00,Wunderground v.1.15,2013-04-19 18:05:00,
2013-04-19 14:15:00,69.1,54.2,29.38,South,169,15.0,15.0,59,0.00,,,0.00,Wunderground v.1.15,2013-04-19 18:15:00,
2013-04-19 14:30:00,68.1,54.6,29.38,SSW,193,14.0,14.0,62,0.00,,,0.00,Wunderground v.1.15,2013-04-19 18:30:00,
2013-04-19 14:40:00,67.9,54.4,29.38,South,178,12.0,12.0,62,0.00,,,0.00,Wunderground v.1.15,2013-04-19 18:40:00,
2013-04-19 14:45:00,68.0,54.9,29.39,South,169,11.0,12.0,63,0.00,,,0.00,Wunderground v.1.15,2013-04-19 18:45:00,
2013-04-19 14:55:00,68.0,55.4,29.38,South,177,11.0,14.0,64,0.00,,,0.00,Wunderground v.1.15,2013-04-19 18:55:00,
2013-04-19 15:00:00,68.1,55.5,29.38,SSW,205,12.0,12.0,64,0.00,,,0.00,Wunderground v.1.15,2013-04-19 19:00:00,
2013-04-19 15:15:00,67.9,55.7,29.37,WSW,248,12.0,14.0,65,0.00,,,0.00,Wunderground v.1.15,2013-04-19 19:15:00,
2013-04-19 15:25:00,68.1,55.9,29.37,SSE,155,12.0,12.0,65,0.00,,,0.00,Wunderground v.1.15,2013-04-19 19:25:00,
2013-04-19 15:35:00,68.0,56.2,29.36,SSW,196,16.0,16.0,66,0.00,,,0.00,Wunderground v.1.15,2013-04-19 19:35:00,
2013-04-19 15:50:00,67.9,55.7,29.36,SSW,209,12.0,13.0,65,0.00,,,0.00,Wunderground v.1.15,2013-04-19 19:50:00,
2013-04-19 15:55:00,67.6,56.2,29.35,SSW,196,13.0,13.0,67,0.00,,,0.00,Wunderground v.1.15,2013-04-19 19:55:00,
2013-04-19 16:10:00,67.6,56.2,29.34,SSW,204,13.0,13.0,67,0.00,,,0.00,Wunderground v.1.15,2013-04-19 20:10:00,
2013-04-19 16:15:00,67.4,56.1,29.33,South,188,16.0,38.0,67,0.00,,,0.00,Wunderground v.1.15,2013-04-19 20:15:00,
2013-04-19 16:25:00,67.1,56.2,29.33,SSE,165,15.0,20.0,68,0.00,,,0.00,Wunderground v.1.15,2013-04-19 20:25:00,
2013-04-19 16:40:00,66.8,56.3,29.31,South,182,14.0,14.0,69,0.00,,,0.00,Wunderground v.1.15,2013-04-19 20:40:00,
2013-04-19 16:45:00,66.7,56.2,29.32,South,178,13.0,14.0,69,0.00,,,0.00,Wunderground v.1.15,2013-04-19 20:45:00,
2013-04-19 17:05:00,66.5,56.4,29.29,South,180,12.0,12.0,70,0.00,,,0.00,Wunderground v.1.15,2013-04-19 21:05:00,
2013-04-19 17:15:00,66.7,56.6,29.30,South,180,12.0,16.0,70,0.00,,,0.00,Wunderground v.1.15,2013-04-19 21:15:00,
2013-04-19 17:20:00,66.8,56.7,29.30,South,184,11.0,11.0,70,0.00,,,0.00,Wunderground v.1.15,2013-04-19 21:20:00,
2013-04-19 17:25:00,67.0,56.9,29.30,South,179,12.0,16.0,70,0.00,,,0.00,Wunderground v.1.15,2013-04-19 21:25:00,
2013-04-19 17:35:00,66.7,56.6,29.27,SSW,198,13.0,14.0,70,0.00,,,0.00,Wunderground v.1.15,2013-04-19 21:35:00,
2013-04-19 17:50:00,66.5,56.8,29.23,South,173,8.0,10.0,71,0.00,,,0.00,Wunderground v.1.15,2013-04-19 21:50:00,
2013-04-19 17:55:00,66.5,56.8,29.23,South,180,10.0,14.0,71,0.00,,,0.00,Wunderground v.1.15,2013-04-19 21:55:00,
2013-04-19 18:10:00,66.8,56.7,29.24,SSW,192,13.0,14.0,70,0.00,,,0.00,Wunderground v.1.15,2013-04-19 22:10:00,
2013-04-19 18:15:00,66.8,57.1,29.25,SW,226,11.0,14.0,71,0.00,,,0.00,Wunderground v.1.15,2013-04-19 22:15:00,
2013-04-19 18:20:00,66.7,57.0,29.25,South,189,9.0,9.0,71,0.00,,,0.00,Wunderground v.1.15,2013-04-19 22:20:00,
2013-04-19 18:30:00,66.6,57.3,29.23,South,191,10.0,12.0,72,0.00,,,0.00,Wunderground v.1.15,2013-04-19 22:30:00,
2013-04-19 18:35:00,66.5,57.2,29.26,SW,219,10.0,10.0,72,0.00,,,0.00,Wunderground v.1.15,2013-04-19 22:35:00,
2013-04-19 18:40:00,66.5,57.2,29.27,SW,227,10.0,10.0,72,0.00,,,0.00,Wunderground v.1.15,2013-04-19 22:40:00,
2013-04-19 18:50:00,66.5,57.2,29.27,South,181,9.0,9.0,72,0.00,,,0.00,Wunderground v.1.15,2013-04-19 22:50:00,
2013-04-19 18:55:00,66.5,57.6,29.26,South,180,11.0,21.0,73,0.00,,,0.00,Wunderground v.1.15,2013-04-19 22:55:00,
2013-04-19 19:10:00,66.2,57.7,29.26,SSW,195,13.0,15.0,74,0.00,,,0.00,Wunderground v.1.15,2013-04-19 23:10:00,
2013-04-19 19:15:00,66.1,57.6,29.25,SSW,193,11.0,15.0,74,0.00,,,0.00,Wunderground v.1.15,2013-04-19 23:15:00,
2013-04-19 19:20:00,65.9,57.7,29.25,SSW,204,10.0,13.0,75,0.00,,,0.00,Wunderground v.1.15,2013-04-19 23:20:00,
2013-04-19 19:30:00,65.7,57.6,29.24,SSW,205,11.0,15.0,75,0.00,,,0.00,Wunderground v.1.15,2013-04-19 23:30:00,
2013-04-19 19:35:00,65.7,57.6,29.24,SSW,192,12.0,15.0,75,0.00,,,0.00,Wunderground v.1.15,2013-04-19 23:35:00,
2013-04-19 19:40:00,65.5,57.7,29.26,SSW,211,11.0,11.0,76,0.00,,,0.00,Wunderground v.1.15,2013-04-19 23:40:00,
2013-04-19 19:45:00,65.7,57.9,29.25,South,173,10.0,16.0,76,0.00,,,0.00,Wunderground v.1.15,2013-04-19 23:45:00,
2013-04-19 19:55:00,65.8,58.0,29.25,SSW,192,11.0,13.0,76,0.00,,,0.00,Wunderground v.1.15,2013-04-19 23:55:00,
2013-04-19 20:05:00,65.7,58.3,29.25,SSW,209,13.0,15.0,77,0.00,,,0.00,Wunderground v.1.15,2013-04-20 00:05:00,
2013-04-19 20:20:00,65.6,58.2,29.23,South,188,16.0,19.0,77,0.00,,,0.00,Wunderground v.1.15,2013-04-20 00:20:00,
2013-04-19 20:25:00,65.5,58.1,29.23,SSE,162,17.0,19.0,77,0.00,,,0.00,Wunderground v.1.15,2013-04-20 00:25:00,
2013-04-19 20:30:00,65.3,58.3,29.22,SSE,163,14.0,14.0,78,0.00,,,0.00,Wunderground v.1.15,2013-04-20 00:30:00,
2013-04-19 20:35:00,65.2,58.2,29.23,South,189,11.0,18.0,78,0.00,,,0.00,Wunderground v.1.15,2013-04-20 00:35:00,
2013-04-19 20:45:00,64.8,58.5,29.22,SSW,200,13.0,15.0,80,0.00,,,0.00,Wunderground v.1.15,2013-04-20 00:45:00,
2013-04-19 20:50:00,64.6,58.3,29.22,SSW,193,13.0,13.0,80,0.00,,,0.00,Wunderground v.1.15,2013-04-20 00:50:00,
2013-04-19 21:05:00,64.4,58.4,29.22,South,180,14.0,14.0,81,0.00,,,0.00,Wunderground v.1.15,2013-04-20 01:05:00,
2013-04-19 21:20:00,64.3,58.3,29.21,South,190,13.0,17.0,81,0.00,,,0.00,Wunderground v.1.15,2013-04-20 01:20:00,
2013-04-19 21:25:00,64.4,58.4,29.22,South,186,13.0,17.0,81,0.00,,,0.00,Wunderground v.1.15,2013-04-20 01:25:00,
2013-04-19 21:35:00,64.1,58.5,29.21,SSW,192,11.0,16.0,82,0.00,,,0.00,Wunderground v.1.15,2013-04-20 01:35:00,
2013-04-19 21:45:00,63.2,58.6,29.20,SSE,165,13.0,13.0,85,0.00,,,0.01,Wunderground v.1.15,2013-04-20 01:45:00,
2013-04-19 21:50:00,62.6,58.7,29.20,SSW,209,11.0,13.0,87,0.00,,,0.01,Wunderground v.1.15,2013-04-20 01:50:00,
2013-04-19 22:00:00,62.1,58.8,29.19,SSE,165,11.0,11.0,89,0.11,,,0.03,Wunderground v.1.15,2013-04-20 02:00:00,
2013-04-19 22:05:00,61.8,58.8,29.19,South,175,11.0,13.0,90,0.09,,,0.03,Wunderground v.1.15,2013-04-20 02:05:00,
2013-04-19 22:15:00,61.8,58.8,29.19,South,189,11.0,11.0,90,0.00,,,0.03,Wunderground v.1.15,2013-04-20 02:15:00,
2013-04-19 22:25:00,61.4,58.7,29.19,South,170,8.0,8.0,91,0.45,,,0.10,Wunderground v.1.15,2013-04-20 02:25:00,
2013-04-19 22:35:00,61.1,58.8,29.17,South,177,8.0,8.0,92,0.16,,,0.12,Wunderground v.1.15,2013-04-20 02:35:00,
2013-04-19 22:45:00,61.2,58.9,29.17,South,178,10.0,10.0,92,0.05,,,0.12,Wunderground v.1.15,2013-04-20 02:45:00,
2013-04-19 22:50:00,61.2,58.9,29.17,SSW,192,10.0,10.0,92,0.00,,,0.12,Wunderground v.1.15,2013-04-20 02:50:00,
2013-04-19 23:00:00,60.3,57.4,29.23,West,269,11.0,20.0,90,6.19,,,0.24,Wunderground v.1.15,2013-04-20 03:00:00,
2013-04-19 23:15:00,53.8,50.9,29.24,WNW,293,18.0,18.0,90,0.12,,,0.44,Wunderground v.1.15,2013-04-20 03:15:00,
2013-04-19 23:20:00,53.0,50.1,29.25,West,263,15.0,18.0,90,0.10,,,0.45,Wunderground v.1.15,2013-04-20 03:20:00,
2013-04-19 23:35:00,52.0,49.5,29.27,West,275,9.0,9.0,91,0.08,,,0.47,Wunderground v.1.15,2013-04-20 03:35:00,
2013-04-19 23:45:00,51.5,49.0,29.29,West,259,9.0,9.0,91,0.11,,,0.49,Wunderground v.1.15,2013-04-20 03:45:00,
2013-04-19 23:55:00,50.8,48.6,29.30,WSW,240,7.0,7.0,92,0.10,,,0.51,Wunderground v.1.15,2013-04-20 03:55:00,